Weather

DAILY 7 DAY TOTAL
onrain

Note: Some stations are located near irrigated fields and may also report irrigation

Alliston Mount Forest Blyth Guelph Grand Bend Strathroy Woodstock Belmont Simcoe Leamington Chatham West Lorne






Chatham WIN - Historical Weather Data
Date Max Temp (°C) Min Temp (°C) Avg Temp (°C) Rain (mm) 7Day Rain(mm) Total Rain(mm) Avg RH (%)
9/21/2019 31.2 16.4 23.2 0.0 1.2 309.8 85.0
9/20/2019 28.0 14.7 21.0 0.0 1.2 309.8 88.4
9/19/2019 24.9 13.2 19.1 0.0 2.8 309.8 83.8
9/18/2019 25.1 12.6 18.3 0.0 6.6 309.8 78.3
9/17/2019 24.3 12.5 18.9 0.0 11.2 309.8 80.3
9/16/2019 25.5 17.7 20.9 0.2 11.2 309.8 94.6
9/15/2019 22.2 12.4 17.8 1.0 11.0 309.6 96.3
9/14/2019 23.6 13.8 19.1 0.0 10.0 308.6 82.1
9/13/2019 29.5 17.1 21.9 1.6 10.0 308.6 94.9
9/12/2019 21.0 16.8 19.0 3.8 8.4 307.0 99.4
9/11/2019 31.4 20.1 24.2 4.6 4.6 303.2 90.1
9/10/2019 28.4 14.7 21.6 0.0 2.2 298.6 86.9
9/9/2019 22.1 10.2 15.9 0.0 3.8 298.6 88.4
9/8/2019 21.1 12.1 16.3 0.0 7.4 298.6 84.2
9/7/2019 22.8 12.5 18.2 0.0 10.0 298.6 86.1
9/6/2019 22.8 10.3 16.6 0.0 10.0 298.6 87.6
9/5/2019 22.5 10.0 15.9 0.0 10.0 298.6 83.7
9/4/2019 23.6 12.4 19.1 2.2 10.0 298.6 86.8
9/3/2019 25.6 14.0 20.2 1.6 7.8 296.4 93.9
9/2/2019 26.0 16.3 20.0 3.6 8.4 294.8 90.1
9/1/2019 18.8 13.7 16.7 2.6 8.2 291.2 95.0
8/31/2019 22.4 11.5 16.9 0.0 5.6 288.6 77.8
8/30/2019 24.7 12.8 20.2 0.0 5.6 288.6 80.6
8/29/2019 25.7 14.0 20.8 0.0 5.6 288.6 75.3
8/28/2019 24.9 15.6 20.8 0.0 5.6 288.6 74.5
8/27/2019 25.4 19.1 22.2 2.2 5.8 288.6 97.4
8/26/2019 24.6 15.7 20.1 3.4 8.0 286.4 83.3
8/25/2019 24.2 12.8 18.4 0.0 7.6 283.0 80.9
8/24/2019 23.2 10.3 16.8 0.0 19.0 283.0 78.0
8/23/2019 23.1 10.8 16.5 0.0 20.6 283.0 82.4
8/22/2019 23.5 12.6 19.6 0.0 20.6 283.0 80.2
8/21/2019 28.7 18.9 23.4 0.2 20.6 283.0 90.9
8/20/2019 30.0 18.5 23.8 4.4 20.4 282.8 91.0
8/19/2019 28.3 19.0 22.9 3.0 16.6 278.4 89.1
8/18/2019 29.0 19.3 23.8 11.4 13.6 275.4 90.6
8/17/2019 29.3 18.2 24.0 1.6 2.2 264.0 86.1
8/16/2019 26.6 15.7 20.9 0.0 0.6 262.4 84.7
8/15/2019 25.9 15.9 20.9 0.0 0.6 262.4 86.8
8/14/2019 27.5 16.8 21.7 0.0 1.6 262.4 72.3
8/13/2019 28.3 17.9 23.2 0.6 1.6 262.4 86.9
8/12/2019 27.8 17.2 23.7 0.0 3.0 261.8 86.1
8/11/2019 27.9 12.6 20.7 0.0 3.0 261.8 81.5
8/10/2019 25.8 12.2 19.4 0.0 4.2 261.8 76.8
8/9/2019 26.1 12.0 20.8 0.0 4.2 261.8 68.1
8/8/2019 28.1 17.8 22.5 1.0 4.2 261.8 78.0
8/7/2019 28.7 16.8 21.9 0.0 3.2 260.8 87.8
8/6/2019 27.4 17.9 22.8 2.0 3.2 260.8 92.5
8/5/2019 30.8 17.0 23.8 0.0 2.0 258.8 86.0
8/4/2019 29.2 16.8 22.3 1.2 5.6 258.8 87.9
8/3/2019 29.4 13.0 21.2 0.0 31.0 257.6 77.2
8/2/2019 27.5 12.6 20.2 0.0 31.0 257.6 80.1
8/1/2019 27.1 12.3 19.4 0.0 31.0 257.6 79.8
7/31/2019 24.7 15.9 19.9 0.0 31.0 257.6 83.9
7/30/2019 28.2 19.8 23.5 0.8 31.0 257.6 87.6
7/29/2019 30.0 21.1 24.7 3.6 34.4 256.8 88.6
7/28/2019 30.8 20.3 24.0 26.6 32.8 253.2 89.5
7/27/2019 29.5 17.5 24.6 0.0 9.4 226.6 75.8
7/26/2019 29.2 16.6 22.6 0.0 22.6 226.6 78.7
7/25/2019 28.2 14.1 21.4 0.0 22.6 226.6 76.2
7/24/2019 25.3 13.7 19.2 0.0 22.6 226.6 80.1
7/23/2019 25.7 12.2 18.2 4.2 35.0 226.6 78.6
7/22/2019 24.9 14.0 20.4 2.0 33.0 222.4 82.6
7/21/2019 27.0 21.1 23.6 3.2 31.0 220.4 82.5
7/20/2019 35.0 21.7 28.1 13.2 27.8 217.2 79.1
7/19/2019 33.2 24.5 27.9 0.0 14.6 204.0 89.2
7/18/2019 31.4 17.1 24.4 0.0 14.6 204.0 86.8
7/17/2019 29.3 19.2 24.4 12.4 14.6 204.0 91.3
7/16/2019 28.5 22.3 25.2 2.2 2.2 191.6 91.5
7/15/2019 30.1 15.1 23.4 0.0 0.0 189.4 68.3
7/14/2019 28.0 16.4 22.3 0.0 0.0 189.4 63.9
7/13/2019 32.8 16.0 25.1 0.0 0.0 189.4 73.3
7/12/2019 25.4 15.8 20.4 0.0 0.4 189.4 82.7
7/11/2019 30.0 17.8 25.6 0.0 1.6 189.4 74.9
7/10/2019 31.9 15.8 24.4 0.0 1.6 189.4 78.5
7/9/2019 27.4 12.9 20.8 0.0 1.6 189.4 70.0
7/8/2019 27.6 14.5 20.9 0.0 21.4 189.4 71.4
7/7/2019 27.3 17.4 22.4 0.0 21.4 189.4 80.5
7/6/2019 29.9 20.9 25.5 0.4 21.4 189.4 89.1
7/5/2019 32.4 22.1 26.6 1.2 21.2 189.0 88.0
7/4/2019 30.8 19.0 24.8 0.0 25.4 187.8 87.7
7/3/2019 29.0 20.8 24.4 0.0 25.4 187.8 89.2
7/2/2019 31.9 20.2 25.9 19.8 25.4 187.8 80.1
7/1/2019 29.0 13.7 22.6 0.0 5.6 168.0 71.7
6/30/2019 27.1 17.6 22.5 0.0 6.4 168.0 69.9
6/29/2019 30.3 20.4 25.0 0.2 6.4 168.0 83.0
6/28/2019 32.4 17.9 24.5 5.4 6.2 167.8 79.1
6/27/2019 30.7 18.2 24.4 0.0 0.8 162.4 63.3
6/26/2019 29.6 20.1 24.9 0.0 12.0 162.4 62.3
6/25/2019 28.4 18.1 22.9 0.0 12.0 162.4 71.9
6/24/2019 27.5 18.8 22.6 0.8 12.0 162.4 80.5
6/23/2019 25.2 11.3 19.2 0.0 11.2 161.6 67.5
6/22/2019 25.3 9.8 18.1 0.0 24.4 161.6 67.7
6/21/2019 23.5 12.1 17.5 0.0 26.6 161.6 76.3
6/20/2019 18.8 14.8 16.9 11.2 26.6 161.6 99.4
6/19/2019 26.1 14.3 20.9 0.0 27.6 150.4 79.7
6/18/2019 25.8 13.1 19.4 0.0 27.6 150.4 82.8
6/17/2019 22.1 12.5 17.3 0.0 27.6 150.4 88.2
6/16/2019 17.3 15.3 16.4 13.2 30.4 150.4 98.9
6/15/2019 21.3 16.4 18.6 2.2 17.2 137.2 83.9
6/14/2019 22.5 11.6 17.3 0.0 15.0 135.0 65.5
6/13/2019 18.7 12.0 15.4 12.2 15.0 135.0 94.2
6/12/2019 23.8 12.7 18.7 0.0 2.8 122.8 62.4
6/11/2019 24.1 10.1 17.9 0.0 6.4 122.8 62.2
6/10/2019 21.6 14.7 18.5 2.8 6.4 122.8 91.2
6/9/2019 25.5 16.8 21.2 0.0 3.6 120.0 71.1
6/8/2019 26.1 11.9 20.3 0.0 4.8 120.0 59.8
6/7/2019 25.6 11.7 19.5 0.0 22.0 120.0 72.4
6/6/2019 23.0 11.4 16.8 0.0 22.0 120.0 91.7
6/5/2019 26.0 13.6 20.2 3.6 24.0 120.0 87.4
6/4/2019 23.8 8.8 17.4 0.0 27.6 116.4 75.3
6/3/2019 17.2 5.6 11.4 0.0 30.0 116.4 70.0
6/2/2019 20.2 8.4 15.5 1.2 30.6 116.4 77.4
6/1/2019 24.7 15.5 19.1 17.2 32.8 115.2 87.5
5/31/2019 23.2 10.8 18.0 0.0 21.2 98.0 77.7
5/30/2019 21.3 13.0 17.0 2.0 21.8 98.0 94.1
5/29/2019 18.5 12.1 14.4 7.2 21.2 96.0 98.5
5/28/2019 26.8 13.3 19.1 2.4 15.8 88.8 90.0
5/27/2019 22.6 6.9 15.8 0.6 13.4 86.4 76.1
5/26/2019 20.8 11.1 17.2 3.4 12.8 85.8 92.1
5/25/2019 30.4 12.6 21.3 5.6 12.4 82.4 82.5
5/24/2019 17.6 10.6 15.2 0.6 7.8 76.8 85.1
5/23/2019 26.2 12.0 19.5 1.4 7.2 76.2 77.4
5/22/2019 19.3 9.7 13.2 1.8 5.8 74.8 84.4
5/21/2019 17.7 3.5 11.4 0.0 4.6 73.0 74.4
5/20/2019 16.9 7.4 13.3 0.0 4.6 73.0 86.3
5/19/2019 26.3 11.4 17.9 3.0 10.0 73.0 90.1
5/18/2019 18.8 8.2 12.7 1.0 15.2 70.0 85.7
5/17/2019 18.3 9.5 13.6 0.0 14.2 69.0 79.5
5/16/2019 22.8 7.4 15.5 0.0 18.8 69.0 77.1
5/15/2019 22.1 10.3 14.9 0.6 33.6 69.0 70.0
5/14/2019 18.8 5.1 11.7 0.0 33.0 68.4 74.6
5/13/2019 9.1 6.5 7.7 5.4 36.4 68.4 94.3
5/12/2019 13.3 7.1 9.2 8.2 31.2 63.0 88.4
5/11/2019 12.3 4.3 8.5 0.0 23.0 54.8 76.4
5/10/2019 16.7 6.7 12.2 4.6 23.0 54.8 82.4
5/9/2019 21.1 9.2 15.3 14.8 25.2 50.2 88.3
5/8/2019 14.8 5.3 9.9 0.0 14.4 35.4 69.2
5/7/2019 8.7 4.5 6.6 3.4 35.4 35.4 91.7
5/6/2019 23.7 7.9 14.3 0.2 38.8 32.0 79.0
5/5/2019 18.6 5.5 11.8 0.0 43.4 31.8 88.1
5/4/2019 13.7 5.5 9.0 0.0 49.4 31.8 89.9
5/3/2019 11.5 5.8 7.9 6.8 51.4 31.8 99.8
5/2/2019 17.7 6.5 11.5 4.0 68.4 25.0 96.7
5/1/2019 21.3 7.3 13.0 21.0 67.6 21.0 96.2